BLKT28 YWLM-YPDN

Flight info

Callsign BLKT28
Flight time N/A
Altitude 38000
Route N0467F380 DCT LIMLO H536 OMLAV Q15 WOL J42 CB J142 BORTO/N0463F400 Q22 NODUR Q158 PH/N0462F410 Y31 MANIG Y36 BIDAP T63 ARG J72 DN DCT
Aircraft P8/M-SADE2E3FGHIJ1J3J4J7M3P2RWXYZ/LB1D1

Departure

Time N/A
Airport Newcastle Airport (YWLM)

Arrival

Time 2026-05-05 13:24
Airport Darwin International Airport / RAAF Darwin (YPDN)
Time Latitude Longitude Altitude Speed Heading
2026-05-05 12:45 -15.61906 128.81269 40995 ft 476 kts 27°
2026-05-05 12:45 -15.59131 128.83142 40992 ft 476 kts 26°
2026-05-05 12:46 -15.53558 128.86869 41005 ft 476 kts 26°
2026-05-05 12:46 -15.48008 128.90561 40992 ft 476 kts 26°
2026-05-05 12:47 -15.42426 128.94272 40991 ft 476 kts 26°
2026-05-05 12:47 -15.36850 128.97979 40998 ft 476 kts 26°
2026-05-05 12:48 -15.32241 129.01042 40991 ft 476 kts 26°
2026-05-05 12:48 -15.26612 129.04781 40990 ft 476 kts 26°
2026-05-05 12:49 -15.21079 129.08453 40989 ft 475 kts 26°
2026-05-05 12:49 -15.15510 129.12147 40985 ft 475 kts 26°
2026-05-05 12:50 -15.09946 129.15836 40986 ft 474 kts 26°
2026-05-05 12:50 -15.04415 129.19501 40983 ft 473 kts 26°
2026-05-05 12:51 -14.98868 129.23173 40983 ft 473 kts 26°
2026-05-05 12:51 -14.93329 129.26838 40982 ft 472 kts 26°
2026-05-05 12:52 -14.87843 129.30466 40979 ft 471 kts 26°
2026-05-05 12:52 -14.82321 129.34115 40978 ft 471 kts 27°
2026-05-05 12:53 -14.76793 129.37766 40979 ft 470 kts 27°
2026-05-05 12:53 -14.71278 129.41406 40977 ft 470 kts 27°
2026-05-05 12:54 -14.63019 129.46853 40976 ft 469 kts 27°
2026-05-05 12:55 -14.57518 129.50478 40977 ft 469 kts 27°
2026-05-05 12:55 -14.52056 129.54076 40977 ft 469 kts 27°
2026-05-05 12:56 -14.46559 129.57694 40975 ft 469 kts 27°
2026-05-05 12:56 -14.41051 129.61318 40981 ft 468 kts 27°
2026-05-05 12:57 -14.36645 129.64214 40975 ft 469 kts 27°
2026-05-05 12:59 -14.33345 129.66383 40977 ft 469 kts 27°
2026-05-05 12:59 -14.27847 129.69996 40982 ft 469 kts 27°
2026-05-05 13:00 -14.19609 129.75401 40483 ft 476 kts 27°
2026-05-05 13:01 -14.11246 129.80887 38735 ft 474 kts 27°
2026-05-05 13:01 -14.08460 129.82714 38001 ft 475 kts 27°
2026-05-05 13:01 -14.05676 129.84539 37344 ft 474 kts 27°
2026-05-05 13:01 -14.02893 129.86362 36691 ft 474 kts 27°
2026-05-05 13:02 -14.00106 129.88188 36037 ft 473 kts 27°
2026-05-05 13:02 -13.97328 129.90007 35338 ft 475 kts 28°
2026-05-05 13:02 -13.94525 129.91840 34593 ft 478 kts 28°
2026-05-05 13:02 -13.91706 129.93683 33799 ft 481 kts 28°
2026-05-05 13:03 -13.88871 129.95537 32926 ft 484 kts 28°
2026-05-05 13:03 -13.86027 129.97397 32216 ft 483 kts 28°
2026-05-05 13:03 -13.83246 129.99218 31663 ft 479 kts 28°
2026-05-05 13:03 -13.80446 130.01050 31097 ft 475 kts 28°
2026-05-05 13:04 -13.77661 130.02872 30523 ft 472 kts 28°
2026-05-05 13:04 -13.74891 130.04682 29920 ft 469 kts 28°
2026-05-05 13:04 -13.72143 130.06476 29273 ft 466 kts 28°
2026-05-05 13:04 -13.69415 130.08257 28669 ft 462 kts 28°
2026-05-05 13:05 -13.66710 130.10023 28074 ft 457 kts 28°
2026-05-05 13:05 -13.64039 130.11766 27498 ft 453 kts 28°
2026-05-05 13:05 -13.61393 130.13492 26931 ft 449 kts 28°
2026-05-05 13:05 -13.58796 130.15185 26377 ft 445 kts 29°
2026-05-05 13:06 -13.56172 130.16896 25809 ft 442 kts 29°
2026-05-05 13:06 -13.53571 130.18589 25223 ft 440 kts 29°
2026-05-05 13:06 -13.50993 130.20265 24653 ft 437 kts 29°
2026-05-05 13:06 -13.48428 130.21930 24089 ft 435 kts 29°
2026-05-05 13:07 -13.45908 130.23567 23526 ft 433 kts 30°
2026-05-05 13:07 -13.43366 130.25216 22871 ft 430 kts 30°
2026-05-05 13:07 -13.40849 130.26852 22290 ft 426 kts 30°
2026-05-05 13:07 -13.38351 130.28474 21727 ft 421 kts 30°
2026-05-05 13:08 -13.35885 130.30075 21176 ft 417 kts 30°
2026-05-05 13:08 -13.33438 130.31663 20632 ft 413 kts 30°
2026-05-05 13:08 -13.31024 130.33229 20094 ft 409 kts 30°
2026-05-05 13:08 -13.28631 130.34781 19552 ft 405 kts 30°
2026-05-05 13:09 -13.26255 130.36322 19005 ft 402 kts 30°
2026-05-05 13:09 -13.23897 130.37851 18470 ft 399 kts 30°
2026-05-05 13:09 -13.21553 130.39370 17877 ft 396 kts 30°
2026-05-05 13:09 -13.19259 130.40857 17322 ft 392 kts 30°
2026-05-05 13:10 -13.16960 130.42346 16787 ft 388 kts 30°
2026-05-05 13:10 -13.14693 130.43814 16258 ft 383 kts 30°
2026-05-05 13:10 -13.12448 130.45268 15746 ft 379 kts 30°
2026-05-05 13:10 -13.10228 130.46706 15231 ft 376 kts 30°
2026-05-05 13:11 -13.08026 130.48134 14734 ft 373 kts 31°
2026-05-05 13:11 -13.05844 130.49547 14233 ft 370 kts 31°
2026-05-05 13:11 -13.03667 130.50958 13724 ft 367 kts 31°
2026-05-05 13:11 -13.01515 130.52352 13173 ft 365 kts 31°
2026-05-05 13:12 -12.99377 130.53737 12662 ft 361 kts 32°
2026-05-05 13:12 -12.97263 130.55107 12173 ft 357 kts 32°
2026-05-05 13:12 -12.95173 130.56460 11695 ft 354 kts 32°
2026-05-05 13:12 -12.93130 130.57783 11232 ft 351 kts 33°
2026-05-05 13:13 -12.91079 130.59111 10767 ft 348 kts 33°
2026-05-05 13:13 -12.89053 130.60423 10518 ft 338 kts 33°
2026-05-05 13:13 -12.87101 130.61685 10387 ft 325 kts 33°
2026-05-05 13:13 -12.85215 130.62904 10260 ft 314 kts 33°
2026-05-05 13:14 -12.83402 130.64077 10177 ft 302 kts 33°
2026-05-05 13:14 -12.81657 130.65205 10074 ft 292 kts 33°
2026-05-05 13:14 -12.79959 130.66303 9872 ft 287 kts 34°
2026-05-05 13:14 -12.78273 130.67394 9551 ft 285 kts 34°
2026-05-05 13:15 -12.76595 130.68480 9240 ft 284 kts 34°
2026-05-05 13:15 -12.74950 130.69544 8930 ft 282 kts 34°
2026-05-05 13:15 -12.73292 130.70616 8619 ft 281 kts 34°
2026-05-05 13:15 -12.71640 130.71684 8309 ft 280 kts 34°
2026-05-05 13:16 -12.69995 130.72746 7996 ft 279 kts 34°
2026-05-05 13:16 -12.68353 130.73807 7664 ft 279 kts 34°
2026-05-05 13:16 -12.66715 130.74865 7346 ft 278 kts 35°
2026-05-05 13:16 -12.65088 130.75915 7087 ft 275 kts 34°
2026-05-05 13:17 -12.63316 130.76608 7029 ft 273 kts
2026-05-05 13:17 -12.61453 130.76492 7017 ft 264 kts 349°
2026-05-05 13:17 -12.59732 130.76070 6926 ft 252 kts 348°
2026-05-05 13:17 -12.58049 130.75648 6653 ft 246 kts 349°
2026-05-05 13:18 -12.56379 130.75238 6145 ft 251 kts 349°
2026-05-05 13:18 -12.54615 130.74807 5350 ft 268 kts 349°
2026-05-05 13:18 -12.52859 130.74378 5273 ft 251 kts 349°
2026-05-05 13:18 -12.51191 130.73972 5159 ft 242 kts 350°
2026-05-05 13:19 -12.49560 130.73579 5068 ft 240 kts 350°
2026-05-05 13:19 -12.47922 130.73185 4976 ft 242 kts 350°
2026-05-05 13:19 -12.46290 130.72792 4866 ft 236 kts 350°
2026-05-05 13:19 -12.44732 130.72416 4752 ft 224 kts 350°
2026-05-05 13:20 -12.43218 130.72052 4547 ft 223 kts 351°
2026-05-05 13:20 -12.41711 130.71797 4313 ft 222 kts
2026-05-05 13:20 -12.40202 130.72027 4080 ft 217 kts 25°
2026-05-05 13:20 -12.38945 130.72802 3839 ft 208 kts 48°
2026-05-05 13:21 -12.38101 130.73956 3644 ft 201 kts 69°
2026-05-05 13:21 -12.37685 130.75311 3411 ft 202 kts 85°
2026-05-05 13:21 -12.37691 130.76742 3172 ft 200 kts 101°
2026-05-05 13:21 -12.38088 130.78092 2844 ft 198 kts 111°
2026-05-05 13:22 -12.38549 130.79395 2431 ft 190 kts 110°
2026-05-05 13:22 -12.38971 130.80631 2048 ft 180 kts 110°
2026-05-05 13:22 -12.39365 130.81803 1697 ft 166 kts 110°
2026-05-05 13:22 -12.39723 130.82873 1332 ft 152 kts 110°
2026-05-05 13:23 -12.40051 130.83859 1014 ft 142 kts 110°
2026-05-05 13:23 -12.40273 130.84524 815 ft 139 kts 109°
2026-05-05 13:23 -12.40538 130.85320 562 ft 139 kts 109°
2026-05-05 13:23 -12.40855 130.86274 287 ft 143 kts 108°
2026-05-05 13:24 -12.41176 130.87223 97 ft 135 kts 108°
2026-05-05 13:24 -12.41443 130.88024 90 ft 110 kts 109°
2026-05-05 13:24 -12.41628 130.88564 92 ft 77 kts 109°
2026-05-05 13:24 -12.41749 130.88925 91 ft 41 kts 109°
2026-05-05 13:25 -12.41802 130.89085 92 ft 4 kts 108°
2026-05-05 13:25 -12.41821 130.89142 92 ft 19 kts 108°
2026-05-05 13:25 -12.41867 130.89280 90 ft 21 kts 109°
2026-05-05 13:25 -12.41932 130.89406 91 ft 20 kts 144°
2026-05-05 13:26 -12.42063 130.89387 90 ft 20 kts 205°
2026-05-05 13:26 -12.42144 130.89288 89 ft 19 kts 265°
2026-05-05 13:26 -12.42112 130.89160 90 ft 18 kts 289°
2026-05-05 13:26 -12.42071 130.89039 90 ft 18 kts 288°
2026-05-05 13:27 -12.42032 130.88922 91 ft 17 kts 289°
2026-05-05 13:27 -12.41994 130.88810 89 ft 16 kts 289°
2026-05-05 13:27 -12.41958 130.88702 90 ft 16 kts 289°
2026-05-05 13:27 -12.41921 130.88592 89 ft 19 kts 289°
2026-05-05 13:28 -12.41870 130.88447 91 ft 24 kts 290°
2026-05-05 13:28 -12.41813 130.88276 90 ft 25 kts 289°
2026-05-05 13:28 -12.41758 130.88112 92 ft 23 kts 284°
2026-05-05 13:28 -12.41706 130.87958 90 ft 23 kts 289°
2026-05-05 13:29 -12.41655 130.87809 91 ft 22 kts 289°
2026-05-05 13:29 -12.41606 130.87663 89 ft 21 kts 289°
2026-05-05 13:29 -12.41558 130.87523 90 ft 21 kts 289°
2026-05-05 13:29 -12.41511 130.87386 90 ft 20 kts 289°
2026-05-05 13:30 -12.41467 130.87253 90 ft 19 kts 288°
2026-05-05 13:30 -12.41424 130.87123 90 ft 20 kts 289°
2026-05-05 13:30 -12.41375 130.86978 89 ft 23 kts 287°
2026-05-05 13:30 -12.41439 130.86938 90 ft 14 kts 180°
2026-05-05 13:31 -12.41509 130.86884 90 ft 15 kts 262°
2026-05-05 13:31 -12.41510 130.86784 89 ft 13 kts 269°
2026-05-05 13:31 -12.41524 130.86730 89 ft 2 kts 205°
2026-05-05 13:31 -12.41539 130.86727 89 ft 2 kts 185°
2026-05-05 13:32 -12.41549 130.86727 90 ft 1 kts 184°
2026-05-05 13:32 -12.41553 130.86727 91 ft 0 kts 180°
2026-05-05 13:33 -12.41545 130.86727 89 ft 0 kts